Date String (YYYY-MM-DD hh:mm:ss) UTC,Instrument flags,Ambient pressure (hPa),Sample flow (lpm),Bypass flow (lpm),Sample temperature (°C),Ambient temperature (°C),ASC tube jacket temperature (°C),LED temperature (°C),Box temperature (°C),Sample RH (%),Span deviation,Mass concentration (μg/m³),Mass concentration (μg/m³),Mass concentration (μg/m³)
DateTimeUTC,F1_M11,P_M11,Q1_M11,Q2_M11,T1_M11,T2_M11,T3_M11,T4_M11,T5_M11,U1_M11,ZSPAN_M11,X0_M11,X2_M11,X1_M11
2022-07-13 08:00:00,,0829.3,5.01,0.00,29.8,28.4,00.0,38.6,31.6,19.1,0000.0,0010.63,0005.65,0005.02
2022-07-13 08:01:00,,0829.3,5.00,0.00,29.8,28.5,00.0,38.6,31.7,19.0,0000.0,0011.57,0005.68,0005.05
2022-07-13 08:02:00,,0829.2,5.00,0.00,29.8,28.6,00.0,38.6,31.7,19.0,0000.0,0011.94,0005.71,0005.08
2022-07-13 08:03:00,,0829.2,5.00,0.00,29.8,28.7,00.0,38.6,31.7,19.1,0000.0,0012.46,0005.76,0005.11
2022-07-13 08:04:00,,0829.2,5.01,0.00,29.9,28.7,00.0,38.6,31.7,19.2,0000.0,0013.33,0005.78,0005.11
2022-07-13 08:05:00,,0829.2,4.99,0.00,29.9,28.8,00.0,38.6,31.8,19.2,0000.0,0013.44,0005.78,0005.11
2022-07-13 08:06:00,,0829.2,5.01,0.00,29.9,28.8,00.0,38.6,31.8,19.2,0000.0,0013.95,0005.80,0005.14
2022-07-13 08:07:00,,0829.2,5.00,0.00,29.9,28.9,00.0,38.7,31.9,19.1,0000.0,0014.18,0005.86,0005.15
2022-07-13 08:08:00,,0829.2,5.00,0.00,30.0,28.9,00.0,38.7,31.9,19.1,0000.0,0014.64,0005.94,0005.17
2022-07-13 08:09:00,,0829.1,5.01,0.00,30.0,29.0,00.0,38.7,31.9,19.1,0000.0,0015.05,0006.02,0005.19
2022-07-13 08:10:00,,0829.2,5.00,0.00,30.0,29.0,00.0,38.7,31.9,19.1,0000.0,0015.19,0006.06,0005.21
2022-07-13 08:11:00,,0829.2,5.00,0.00,30.0,29.0,00.0,38.7,31.9,19.0,0000.0,0015.30,0006.12,0005.22
2022-07-13 08:12:00,,0829.3,5.01,0.00,30.0,29.0,00.0,38.8,32.0,19.0,0000.0,0014.65,0006.16,0005.23
2022-07-13 08:13:00,,0829.2,5.00,0.00,30.0,28.4,00.0,38.7,31.9,18.8,0000.0,0014.34,0006.18,0005.24
2022-07-13 08:14:00,,0829.2,4.99,0.00,30.0,27.6,00.0,38.7,31.7,18.8,0000.0,0014.28,0006.15,0005.22
2022-07-13 08:15:00,,0829.2,5.00,0.00,29.9,27.5,00.0,38.6,31.6,18.9,0000.0,0013.86,0006.19,0005.24
2022-07-13 08:16:00,,0829.2,5.01,0.00,29.8,27.5,00.0,38.6,31.5,18.9,0000.0,0013.92,0006.22,0005.25
2022-07-13 08:17:00,,0829.2,5.01,0.00,29.8,27.6,00.0,38.6,31.5,18.9,0000.0,0013.36,0006.22,0005.25
2022-07-13 08:18:00,,0829.2,5.00,0.00,29.8,27.7,00.0,38.6,31.5,18.9,0000.0,0012.99,0006.16,0005.25
2022-07-13 08:19:00,,0829.3,5.00,0.00,29.7,27.9,00.0,38.6,31.5,18.8,0000.0,0012.63,0006.13,0005.23
2022-07-13 08:20:00,,0829.2,4.99,0.00,29.7,28.0,00.0,38.6,31.5,18.8,0000.0,0013.04,0006.09,0005.22
2022-07-13 08:21:00,,0829.2,5.01,0.00,29.7,28.1,00.0,38.6,31.6,18.9,0000.0,0012.28,0006.03,0005.21
2022-07-13 08:22:00,,0829.3,4.99,0.00,29.8,28.2,00.0,38.6,31.6,18.8,0000.0,0012.61,0006.01,0005.20
2022-07-13 08:23:00,,0829.2,5.01,0.00,29.8,28.3,00.0,38.6,31.6,18.8,0000.0,0012.92,0006.00,0005.20
2022-07-13 08:24:00,,0829.3,5.00,0.00,29.8,28.4,00.0,38.6,31.6,18.8,0000.0,0012.93,0005.98,0005.19
2022-07-13 08:25:00,,0829.2,5.00,0.00,29.8,28.5,00.0,38.6,31.7,18.7,0000.0,0013.13,0006.00,0005.18
2022-07-13 08:26:00,,0829.2,5.00,0.00,29.8,28.6,00.0,38.6,31.7,18.8,0000.0,0012.92,0005.98,0005.17
2022-07-13 08:27:00,,0829.2,5.00,0.00,29.8,28.6,00.0,38.6,31.7,18.7,0000.0,0013.92,0005.96,0005.13
2022-07-13 08:28:00,,0829.2,5.00,0.00,29.8,28.7,00.0,38.6,31.8,18.6,0000.0,0014.21,0005.95,0005.12
2022-07-13 08:29:00,,0829.2,5.00,0.00,29.9,28.7,00.0,38.6,31.7,18.5,0000.0,0014.75,0005.95,0005.11
2022-07-13 08:30:00,,0829.2,5.01,0.00,29.9,28.8,00.0,38.6,31.8,18.6,0000.0,0015.28,0005.95,0005.09
2022-07-13 08:31:00,,0829.1,5.00,0.00,29.9,28.8,00.0,38.7,31.8,18.6,0000.0,0015.07,0005.96,0005.08
2022-07-13 08:32:00,,0829.1,5.00,0.00,29.9,28.9,00.0,38.7,31.9,18.5,0000.0,0015.89,0006.01,0005.06
2022-07-13 08:33:00,,0829.1,5.00,0.00,30.0,28.9,00.0,38.7,31.9,18.3,0000.0,0015.87,0005.98,0005.04
2022-07-13 08:34:00,,0829.1,4.99,0.00,30.0,28.9,00.0,38.7,31.9,18.1,0000.0,0015.33,0005.99,0005.02
2022-07-13 08:35:00,,0829.1,5.01,0.00,30.0,29.0,00.0,38.7,31.9,18.1,0000.0,0015.09,0005.96,0004.99
2022-07-13 08:36:00,,0829.1,5.00,0.00,30.0,29.0,00.0,38.8,32.0,18.2,0000.0,0014.51,0005.93,0004.98
2022-07-13 08:37:00,,0829.1,5.00,0.00,30.0,29.0,00.0,38.8,31.9,18.3,0000.0,0014.29,0005.91,0004.97
2022-07-13 08:38:00,,0829.1,4.99,0.00,30.1,29.0,00.0,38.8,32.0,18.2,0000.0,0013.24,0005.85,0004.96
2022-07-13 08:39:00,,0829.1,5.00,0.00,30.1,28.9,00.0,38.8,32.0,18.0,0000.0,0012.71,0005.83,0004.94
2022-07-13 08:40:00,,0829.1,5.00,0.00,30.1,28.1,00.0,38.7,31.9,17.9,0000.0,0012.73,0005.81,0004.91
2022-07-13 08:41:00,,0829.0,4.99,0.00,30.0,27.5,00.0,38.7,31.7,18.0,0000.0,0012.81,0005.78,0004.90
2022-07-13 08:42:00,,0829.0,5.00,0.00,29.9,27.5,00.0,38.7,31.6,18.1,0000.0,0012.64,0005.72,0004.89
2022-07-13 08:43:00,,0829.1,5.00,0.00,29.8,27.5,00.0,38.6,31.5,18.5,0000.0,0011.67,0005.64,0004.88
2022-07-13 08:44:00,,0829.1,5.00,0.00,29.8,27.6,00.0,38.6,31.5,18.4,0000.0,0011.03,0005.57,0004.86
2022-07-13 08:45:00,,0829.1,5.00,0.00,29.8,27.8,00.0,38.6,31.5,19.6,0000.0,0010.65,0005.49,0004.85
2022-07-13 08:46:00,,0829.0,4.99,0.00,29.8,27.9,00.0,38.6,31.5,20.3,0000.0,0010.90,0005.48,0004.84
2022-07-13 08:47:00,,0829.0,5.00,0.00,29.8,28.0,00.0,38.6,31.5,19.6,0000.0,0011.00,0005.48,0004.84
2022-07-13 08:48:00,,0829.0,5.00,0.00,29.8,28.1,00.0,38.6,31.6,19.5,0000.0,0010.82,0005.45,0004.85
2022-07-13 08:49:00,,0829.0,5.00,0.00,29.8,28.2,00.0,38.6,31.6,18.8,0000.0,0010.76,0005.45,0004.86
2022-07-13 08:50:00,,0829.0,5.00,0.00,29.8,28.3,00.0,38.6,31.6,18.5,0000.0,0010.70,0005.43,0004.85
2022-07-13 08:51:00,,0829.0,5.00,0.00,29.8,28.4,00.0,38.6,31.7,18.2,0000.0,0010.31,0005.42,0004.85
2022-07-13 08:52:00,,0829.0,5.00,0.00,29.8,28.5,00.0,38.6,31.7,18.2,0000.0,0010.27,0005.42,0004.86
2022-07-13 08:53:00,,0829.0,5.00,0.00,29.8,28.5,00.0,38.6,31.7,18.3,0000.0,0010.46,0005.41,0004.86
2022-07-13 08:54:00,,0829.0,5.00,0.00,29.8,28.6,00.0,38.6,31.7,18.6,0000.0,0010.84,0005.43,0004.87
2022-07-13 08:55:00,,0829.0,5.00,0.00,29.8,28.7,00.0,38.6,31.7,19.0,0000.0,0011.37,0005.50,0004.89
2022-07-13 08:56:00,,0829.0,5.00,0.00,29.9,28.7,00.0,38.6,31.8,18.9,0000.0,0012.00,0005.56,0004.93
2022-07-13 08:57:00,,0829.1,5.00,0.00,29.9,28.8,00.0,38.7,31.8,18.6,0000.0,0011.94,0005.58,0004.97
2022-07-13 08:58:00,,0829.1,5.01,0.00,29.9,28.8,00.0,38.7,31.8,18.9,0000.0,0012.16,0005.58,0005.00
2022-07-13 08:59:00,,0829.1,5.00,0.00,29.9,28.8,00.0,38.7,31.8,19.0,0000.0,0012.56,0005.65,0005.04
